Find Local Weather

World > North America > United States > Arizona

Lake Havasu City, Arizona Regional Weather

Lat: 34.45N, Lon: 114.33W
Wx Zone: AZZ002
Feedback
Expires:201804251700;;018204
ASUS45 KPSR 251610
RWRAZ 

ARIZONA HOURLY REGIONAL WEATHER ROUNDUP
NATIONAL WEATHER SERVICE PHOENIX AZ
900 AM MST WED APR 25 2018

NOTE: FAIR INDICATES FEW OR NO CLOUDS BELOW 12,000 FEET WITH NO
SIGNIFICANT WEATHER AND/OR OBSTRUCTIONS TO VISIBILITY.


AZZ001>003-036-251700-
NORTHWEST ARIZONA
  
CITY           SKY/WX    TMP DP  RH WIND       PRES   REMARKS
BULLHEAD CITY  SUNNY     84  19   9 N22G29    29.95S                  
KINGMAN        SUNNY     76  23  14 NW8       30.11S                  
$$


SKY/WX - Weather  TMP - Temperature  DP - Dewpoint  RH - Relative Humidity
WIND - Wind Direction/Speed PRES - Barometric Pressure